Midland International Airport Midland US
ICAO: KMAF
IATA: MAF
Category: Medium
Scheduled Services: Yes

Elevation: 2871 ft
TransAlt. 18000 ft.

Airport Communications:
APP/DEP:121.1
ATIS:126.8
CLNC DEL:118.05
CTAF:118.7
GND:121.9
SAN ANGELO RDO:122.6
TWR:118.7
UNICOM:122.95

KMAF Zoom In..

Runways:

(A) RW 04 length 4605 ft width 75 ft
---- / hdg 45

(B) RW 10 length 8302 ft width 150 ft
ILS 110.30 / hdg 105

(C) RW 16L length 4247 ft width 100 ft
---- / hdg 168

(D) RW 16R length 9501 ft width 150 ft
---- / hdg 166

(E) RW 22 length 4605 ft width 75 ft
---- / hdg 225

(F) RW 28 length 8302 ft width 150 ft
---- / hdg 285

(G) RW 34L length 9501 ft width 150 ft
---- / hdg 346

(H) RW 34R length 4247 ft width 100 ft
---- / hdg 348

Location; KMAF
Day. 21 / Time. 14.53 Zulu
* Altimeter: 30.10
* Temperature: 19° c. 66.2°f.
* Wind from: 090° Speed 13 kn.
Dewpoint: 16° c.
Visibility: 9 Statute Miles.
Clouds: Overcast 1000 ft.

KMAF 211453Z 09013KT 9SM OVC010 19/16 A3010 RMK AO2 CIG 009V013 SLP158 T01940161 51012


Wind From 090°
Speed 13 kn.

 
 
jpsmedia.com for Web Design SOUNDCLOUD worldairports.se 2018   terms of use